Regional Weather Roundup
Issued by NWS

Home | Current Version | Previous Version | Graphics & Text | Print | Product List | Glossary On
Versions: 1 2 3 4 5 6 7 8 9 10 11 12 13 14 15 16 17 18 19 20 21 22 23 24 25 26 27 28 29 30 31 32 33 34 35 36 37 38 39 40 41 42 43 44 45 46 47 48 49 50
000
ASUS43 KBIS 150010
RWRND

NORTH DAKOTA REGIONAL WEATHER ROUNDUP
NATIONAL WEATHER SERVICE BISMARCK ND
600 PM CST THU DEC 14 2017

NOTE: "FAIR" INDICATES FEW OR NO CLOUDS BELOW 12,000 FEET WITH NO
SIGNIFICANT WEATHER AND/OR OBSTRUCTIONS TO VISIBILITY.


NDZ001>003-009>011-017-150100-
NORTHWEST NORTH DAKOTA

CITY           SKY/WX    TMP DP  RH WIND       PRES   REMARKS
WILLISTON      PTCLDY    30  23  75 W5        30.11S
6HR MIN TEMP:  29; 6HR MAX TEMP:  38;

MINOT          CLOUDY    35  26  69 W17G25    30.04F
MINOT AFB      CLOUDY    33  24  69 NW18G24   30.02F
$$

NDZ018>021-031>035-040>046-150100-
SOUTHWEST NORTH DAKOTA

CITY           SKY/WX    TMP DP  RH WIND       PRES   REMARKS
BISMARCK       CLOUDY    35  25  66 W10       30.09F
6HR MIN TEMP:  33; 6HR MAX TEMP:  36; 6HR PCP: TRACE;

DICKINSON      PTCLDY    29  23  78 W9        30.07F
GARRISON         N/A     33  24  69 W9        30.06F
6HR MIN TEMP:  31; 6HR MAX TEMP:  35;

HETTINGER ARPT PTCLDY    25  20  81 W8        30.13F WCI  16
$$

NDZ004>008-012>016-024-026-027-054-150100-
NORTHEAST NORTH DAKOTA

CITY           SKY/WX    TMP DP  RH WIND       PRES   REMARKS
GRAND FORKS    FLURRIES  20  16  84 E6        30.05S WCI  12
GRND FRKS AFB  LGT SNOW  20  17  88 E6        30.04S FOG     WCI  12
DEVILS LAKE    CLOUDY    29  26  89 W9        30.01F
$$

NDZ022-023-025-028>030-036>039-047>053-150100-
SOUTHEAST NORTH DAKOTA

CITY           SKY/WX    TMP DP  RH WIND       PRES   REMARKS
FARGO          CLOUDY    24  21  88 CALM      30.05F
6HR MIN TEMP:  23; 6HR MAX TEMP:  25; 6HR PCP: TRACE;

JAMESTOWN      CLOUDY    30  26  85 W12       30.03F
$$




USA.gov is the U.S. government's official web portal to all federal, state and local government web resources and services.